Weather History for Charleston, WV

Change the Weather History Date:

Sunday, January 19, 2014

  Actual Average Record
Temperature  
Mean Temperature 34 °F 34 °F  
Max Temperature 42 °F 42 °F 74 °F (1929)
Min Temperature 25 °F 26 °F -16 °F (1994)
Degree Days  
Heating Degree Days 31 31  
Month to date heating degree days 627 588  
Since 1 July heating degree days 2377 2328  
Cooling Degree Days 0 0  
Month to date cooling degree days 0 0  
Year to date cooling degree days 0 0  
Moisture  
Dew Point 25 °F    
Average Humidity 68    
Maximum Humidity 89    
Minimum Humidity 46    
Precipitation  
Precipitation 0.01 in 0.10 in 1.30 in (2001)
Month to date precipitation 1.99 1.83  
Year to date precipitation 1.99 1.83  
Snow  
Snow T in - - ()
Month to date snowfall 5.0  
Since 1 September snowfall 11.7  
Snow Depth 1.00 in    
Sea Level Pressure  
Sea Level Pressure 29.87 in    
Wind  
Wind Speed 9 mph (WSW)    
Max Wind Speed 20 mph    
Max Gust Speed 29 mph    
Visibility 9 miles    
Events Snow    
T = Trace of Precipitation, MM = Missing Value Source: NWS Daily Summary

Daily Weather History Graph

Daily Weather History Graph

Search for Another Location

Airport:

Trip Planner

Search our weather history database for the weather conditions in past years. The results will help you decide how hot, cold, wet, or windy it might be!

Date:

Astronomy

Jan. 19, 2014 Rise Set
Actual Time 7:40 AM EST 5:34 PM EST
Civil Twilight 7:11 AM EST 6:02 PM EST
Nautical Twilight 6:39 AM EST 6:35 PM EST
Astronomical Twilight 6:07 AM EST 7:06 PM EST
Moon 9:07 PM EST (1/19) 9:12 AM EST (1/19)
Length of Visible Light 10h 51m
Length of Day
9h 53m
Waning Gibbous, 89% of the Moon is Illuminated
Jan 19
Waning Gibbous
Jan 24
Last Quarter
Jan 30
New
Feb 6
First Quarter
Feb 14
Full

Hourly Weather History & Observations

Time (EST) Temp. Windchill Dew Point Humidity Pressure Visibility Wind Dir Wind Speed Gust Speed Precip Events Conditions
12:54 AM 28.0 °F - 24.1 °F 85% 29.81 in 10.0 mi Calm Calm - N/A   Overcast
1:54 AM 28.0 °F 21.7 °F 25.0 °F 88% 29.81 in 10.0 mi SSE 5.8 mph - N/A   Overcast
2:54 AM 32.0 °F 26.4 °F 23.0 °F 69% 29.81 in 10.0 mi SSW 5.8 mph - N/A   Overcast
3:54 AM 34.0 °F 29.8 °F 23.0 °F 64% 29.81 in 10.0 mi WSW 4.6 mph - N/A   Overcast
4:54 AM 34.0 °F 28.8 °F 21.9 °F 61% 29.81 in 10.0 mi SW 5.8 mph - N/A   Overcast
5:54 AM 35.1 °F 29.3 °F 21.0 °F 57% 29.81 in 10.0 mi SW 6.9 mph - N/A   Overcast
6:54 AM 35.1 °F 30.1 °F 21.9 °F 59% 29.83 in 10.0 mi WSW 5.8 mph - N/A   Overcast
7:22 AM 36.0 °F 28.5 °F 24.1 °F 62% 29.81 in 9.0 mi West 10.4 mph - 0.00 in Snow Light Snow
7:54 AM 35.1 °F 29.3 °F 25.0 °F 67% 29.85 in 9.0 mi WSW 6.9 mph - 0.00 in Snow Light Snow
8:54 AM 35.1 °F 28.6 °F 27.0 °F 72% 29.89 in 9.0 mi WNW 8.1 mph - 0.00 in Snow Light Snow
9:47 AM 33.1 °F 26.1 °F 30.9 °F 92% 29.90 in 2.5 mi West 8.1 mph - 0.01 in Snow Light Snow
9:54 AM 33.1 °F 24.9 °F 30.9 °F 92% 29.93 in 2.5 mi West 10.4 mph - 0.01 in Snow Light Snow
10:54 AM 33.1 °F 27.7 °F 30.9 °F 92% 29.95 in 6.0 mi West 5.8 mph - 0.00 in Snow Light Snow
11:54 AM 34.0 °F 27.2 °F 30.0 °F 85% 29.96 in 9.0 mi West 8.1 mph - 0.00 in Snow Light Snow
12:54 PM 36.0 °F 28.0 °F 28.9 °F 76% 29.92 in 10.0 mi West 11.5 mph 20.7 mph 0.00 in   Mostly Cloudy
1:47 PM 37.0 °F 29.3 °F 27.0 °F 67% 29.88 in 10.0 mi West 11.5 mph - N/A   Mostly Cloudy
1:54 PM 37.0 °F 29.8 °F 27.0 °F 67% 29.90 in 10.0 mi West 10.4 mph 19.6 mph N/A   Mostly Cloudy
2:54 PM 39.9 °F 32.1 °F 26.1 °F 58% 29.89 in 10.0 mi WSW 13.8 mph 21.9 mph N/A   Scattered Clouds
3:54 PM 41.0 °F 33.5 °F 24.1 °F 51% 29.89 in 10.0 mi WSW 13.8 mph 25.3 mph N/A   Partly Cloudy
4:54 PM 41.0 °F 33.9 °F 23.0 °F 49% 29.89 in 10.0 mi West 12.7 mph 20.7 mph N/A   Clear
5:54 PM 39.0 °F 31.0 °F 21.9 °F 50% 29.89 in 10.0 mi WSW 13.8 mph 26.5 mph N/A   Clear
6:54 PM 37.0 °F 30.4 °F 23.0 °F 57% 29.89 in 10.0 mi SW 9.2 mph - N/A   Clear
7:54 PM 37.0 °F 29.8 °F 23.0 °F 57% 29.88 in 10.0 mi SW 10.4 mph - N/A   Clear
8:54 PM 37.0 °F 31.0 °F 23.0 °F 57% 29.88 in 10.0 mi SW 8.1 mph - N/A   Clear
9:54 PM 37.9 °F 30.5 °F 21.9 °F 53% 29.86 in 10.0 mi SW 11.5 mph - N/A   Clear
10:54 PM 39.9 °F 32.5 °F 21.0 °F 47% 29.84 in 10.0 mi SW 12.7 mph - N/A   Mostly Cloudy
11:54 PM 39.0 °F 32.8 °F 21.0 °F 49% 29.83 in 10.0 mi WSW 9.2 mph 19.6 mph N/A   Scattered Clouds